Wind_Speed
22 19 19 19 20 19 19 18 18 18 18 16 15 15 15 14 13 11 9 8 6 5 5 6 4 1 0 1 9 7 8 12 16 13 9 4 4 2 4 4 5 5 4 2 6 4 2
24 23 21 20 21 21 20 20 20 20 19 19 18 16 15 14 14 12 9 7 6 6 5 4 1 2 1 3 8 13 8 14 15 15 7 10 6 3 8 4 4 4 3 1 5 6 2
25 24 24 23 22 22 21 20 21 22 22 20 18 17 15 14 13 11 7 6 6 5 4 3 2 3 1 13 2 4 12 16 18 14 4 10 14 1 7 7 5 1 6 6 5 6 2
28 27 26 25 25 24 22 22 23 24 24 21 18 16 15 14 12 10 6 6 6 5 4 2 3 3 7 11 18 16 11 7 11 14 15 18 18 7 1 4 7 7 3 2 2 9 3
27 27 27 27 26 26 24 24 25 26 26 22 19 17 15 15 13 8 6 5 4 3 2 3 3 2 9 10 11 21 19 12 12 14 19 20 8 2 7 3 5 3 6 3 3 9 5
27 27 28 28 28 27 27 27 27 29 28 24 20 19 17 15 11 6 3 4 2 3 4 1 4 3 8 5 10 22 18 25 6 3 6 2 5 2 3 3 5 8 5 6 6 10 7
27 28 29 30 29 29 29 28 29 31 29 25 22 20 16 13 8 4 8 5 3 2 4 9 7 5 5 7 9 11 18 14 4 3 5 6 2 7 13 8 8 8 5 13 19 10 5
27 28 30 31 31 31 31 31 31 33 30 27 24 19 15 10 6 8 12 3 5 3 7 19 13 9 15 6 2 7 16 4 5 6 1 5 7 13 10 12 9 7 11 20 2 15 6
29 29 30 31 33 32 32 33 34 35 31 28 25 19 12 4 3 9 13 21 17 16 1 6 8 7 7 11 8 11 11 7 5 5 6 8 15 7 8 15 16 15 14 8 6 7 2
30 31 32 33 34 35 34 35 36 37 32 30 26 17 7 4 5 5 6 16 31 5 5 5 4 7 5 6 5 13 19 7 4 9 6 7 15 13 13 9 10 12 5 4 3 3 2
31 32 33 34 36 36 36 37 39 39 33 31 25 14 2 12 4 6 6 9 8 7 3 5 4 3 6 8 3 6 18 3 10 9 4 11 7 10 6 8 6 9 6 3 4 3 3
32 32 34 36 37 38 39 41 42 41 35 32 21 11 5 9 8 4 13 6 3 4 4 2 6 6 6 3 5 3 8 1 6 6 5 11 6 6 7 7 4 7 5 8 4 2 3
32 33 35 37 38 39 41 43 45 43 38 31 15 6 12 9 4 6 13 6 5 2 5 5 6 7 8 8 6 9 12 13 8 2 5 7 10 10 6 7 9 4 6 4 5 4 6
32 34 36 38 39 40 42 45 48 44 40 25 7 3 10 17 6 12 5 4 1 5 7 2 5 8 8 7 7 7 10 11 8 4 3 3 10 5 4 11 8 4 8 5 4 3 6
33 35 37 39 41 41 43 47 49 45 37 20 2 0 5 15 9 3 5 2 6 4 5 4 5 3 4 4 4 6 9 14 10 12 9 6 7 4 6 5 10 6 4 7 4 1 3
38 36 38 40 42 42 44 48 50 48 35 16 2 2 6 9 10 4 5 4 5 4 4 4 3 4 2 4 9 7 8 9 10 14 6 6 3 4 5 5 1 8 3 1 3 1 4
39 36 38 40 42 43 45 48 51 51 34 14 3 3 4 15 12 5 3 6 6 7 6 4 4 2 1 2 1 4 6 4 3 4 18 3 3 12 3 3 6 4 4 1 4 5 5
39 37 38 40 42 43 45 47 51 52 37 11 3 2 11 21 3 0 2 5 5 6 5 4 6 5 3 2 6 7 5 8 14 6 6 3 4 3 6 5 6 6 2 5 4 8 3
38 38 38 40 41 43 45 46 49 52 33 6 1 3 11 18 2 2 6 7 9 3 0 2 5 4 3 4 3 4 7 9 18 10 6 2 1 3 9 8 6 5 4 2 4 3 3
37 38 37 39 41 42 45 46 48 46 25 2 2 3 4 4 1 2 4 5 7 11 10 6 6 8 8 9 7 5 9 6 10 8 15 5 3 6 6 6 3 6 8 5 5 2 3
36 37 37 37 39 41 42 45 46 46 21 4 4 1 2 3 4 4 3 6 7 7 6 11 7 8 5 7 8 7 6 7 6 7 7 4 2 4 2 3 5 4 11 11 3 5 2
34 36 36 35 37 38 40 42 44 45 22 7 3 4 5 4 6 4 5 6 6 5 4 4 5 6 9 5 1 5 5 3 5 6 5 4 3 4 5 5 6 5 8 6 9 12 4
34 34 35 34 35 36 37 38 41 42 30 10 8 6 3 5 7 3 5 4 7 6 0 5 3 3 5 2 4 6 7 7 8 6 2 2 3 3 4 5 6 4 5 7 5 12 5
32 32 33 33 33 34 34 34 36 36 35 7 10 3 3 4 3 3 8 7 9 7 3 6 4 2 3 5 4 3 4 7 7 12 8 5 4 3 4 3 0 4 7 11 13 12 11
31 30 30 31 31 31 31 31 32 32 30 10 9 6 2 2 4 6 10 6 6 8 8 5 7 1 3 6 4 6 6 7 5 4 9 5 4 1 3 4 4 5 8 4 2 3 8
30 29 28 29 29 30 29 29 30 30 30 20 10 15 1 2 3 7 3 4 2 4 7 4 6 9 6 3 4 2 2 4 5 9 7 7 4 4 3 1 3 3 6 10 3 3 4
29 28 27 27 27 27 27 27 28 28 29 25 6 19 2 1 3 4 3 1 2 3 1 4 7 7 5 3 3 1 2 3 3 5 6 6 4 3 3 2 2 5 11 8 5 5 4
28 27 26 25 26 26 25 25 25 26 27 25 6 12 8 2 6 3 4 3 5 3 2 5 4 5 4 5 3 2 3 2 3 3 4 3 2 3 3 4 1 6 6 4 3 6 5
27 26 25 23 24 25 24 23 24 24 25 22 7 14 15 5 6 7 21 17 13 6 4 3 4 1 2 4 2 1 2 3 2 2 5 4 4 3 4 4 3 6 3 2 1 3 5
Wind_Direction
20 22 20 15 11 9 5 3 359 354 349 344 337 330 326 322 321 314 298 284 284 295 293 293 291 271 185 355 251 253 301 187 192 209 214 192 254 243 242 280 316 223 207 182 146 123 261
21 22 20 17 13 11 7 4 358 351 347 341 336 329 324 321 319 315 296 277 272 282 290 290 290 165 106 252 261 262 215 171 191 202 220 202 230 207 275 271 289 237 207 108 151 164 151
22 25 25 20 16 11 7 4 357 351 346 338 332 327 322 320 315 313 297 270 251 265 279 261 174 125 257 234 269 198 195 196 203 210 223 233 248 241 285 318 31 65 345 343 187 165 170
27 25 23 19 15 12 9 3 359 351 348 341 335 330 323 319 311 307 284 262 240 252 267 221 153 134 245 256 239 265 220 244 217 232 245 266 275 247 249 307 4 348 85 297 212 162 173
24 21 19 17 14 11 8 2 360 355 349 344 337 330 322 317 307 292 266 246 230 260 240 173 132 153 266 303 210 231 215 220 201 230 251 270 292 264 8 50 359 10 282 243 268 186 146
21 19 16 15 12 9 7 3 -0 356 352 344 336 328 318 312 301 272 239 174 165 112 125 139 262 320 268 242 190 218 222 219 194 241 325 291 30 9 346 115 249 260 276 283 246 185 190
19 16 14 12 11 8 5 3 0 359 355 345 337 327 318 308 294 217 143 140 60 350 208 197 196 227 283 236 190 203 201 197 210 119 220 273 100 242 251 214 247 285 280 266 292 179 64
17 16 13 11 10 7 3 2 1 359 356 349 339 329 319 306 277 185 173 191 185 134 283 224 223 263 285 284 263 231 216 151 132 223 276 353 257 243 246 250 235 241 256 276 295 129 98
16 15 13 10 7 5 3 2 1 359 358 354 344 335 325 297 215 185 204 219 163 22 173 278 191 217 234 150 210 217 146 188 181 222 220 199 244 240 230 263 264 260 232 259 136 133 95
14 14 12 9 6 4 3 1 0 360 358 355 348 340 330 158 150 153 237 281 235 303 35 265 198 255 201 173 215 191 181 148 189 218 242 237 259 249 259 244 220 261 246 280 66 134 244
12 11 10 8 6 5 3 1 360 359 355 352 345 336 276 154 170 193 25 33 127 130 51 164 187 195 165 166 136 224 180 97 210 232 122 258 297 295 276 244 188 229 253 260 117 150 142
10 9 8 7 5 5 3 2 360 358 353 348 341 329 206 197 240 238 358 9 125 39 270 215 163 168 135 221 243 83 169 151 218 230 237 246 259 219 229 287 273 275 311 30 49 43 10
9 8 7 6 5 5 3 1 0 358 353 345 334 309 186 188 197 347 347 98 47 151 322 180 178 157 179 206 246 164 178 204 205 165 268 314 271 273 207 281 304 111 60 348 356 353 233
9 9 8 5 5 4 3 1 1 359 354 350 325 307 206 223 236 309 0 61 197 247 265 180 144 155 185 173 223 195 158 209 249 191 60 199 317 184 215 197 187 196 143 153 238 238 268
11 10 8 6 5 4 3 2 2 360 357 356 57 123 244 241 257 236 72 98 215 235 297 66 65 86 301 250 188 164 196 211 218 180 180 186 259 293 185 177 146 269 205 193 157 139 82
10 9 8 7 6 5 5 3 3 360 358 358 332 276 249 199 206 116 74 234 243 248 278 57 91 159 240 246 180 171 189 231 238 192 171 235 280 218 326 72 336 177 177 354 14 299 281
9 9 9 8 6 6 5 4 4 0 0 2 342 18 213 167 153 54 166 239 279 282 280 89 177 226 313 328 144 161 240 249 175 193 203 157 99 285 55 151 215 351 287 38 127 139 185
9 8 8 8 8 6 5 4 5 4 358 353 353 27 166 162 67 92 191 224 269 271 348 19 51 48 30 358 358 21 20 27 2 326 125 233 158 209 223 279 200 171 167 131 132 275 225
8 8 7 8 8 7 5 4 5 7 357 351 49 263 171 162 135 272 298 290 276 199 23 71 46 66 0 18 11 15 12 37 14 26 23 287 36 22 346 350 8 47 335 113 153 113 253
7 6 6 7 8 8 7 5 4 7 358 99 53 30 332 34 104 67 295 297 342 16 43 20 45 56 28 27 14 16 4 8 2 32 14 66 64 154 191 211 217 311 313 315 117 80 285
6 6 6 6 8 9 9 7 6 8 11 1 25 353 136 302 317 319 357 3 52 16 10 18 42 43 33 25 355 6 356 331 355 23 30 67 59 24 283 330 37 330 335 338 29 228 114
3 4 5 6 7 9 11 11 10 11 22 52 51 30 344 305 297 335 5 342 52 343 50 9 60 27 67 79 103 308 352 15 270 331 30 2 289 45 311 328 12 324 326 347 350 359 332
1 2 4 4 6 8 11 12 13 14 23 38 350 335 99 285 337 42 346 53 43 12 10 98 21 45 46 327 260 241 220 223 232 258 303 275 141 43 264 336 359 353 4 54 90 39 338
359 359 0 2 4 6 9 11 12 15 18 17 5 330 41 301 32 357 6 11 9 358 267 312 6 68 243 301 306 321 301 262 258 262 181 229 141 132 245 29 343 200 39 65 108 63 64
355 356 357 359 1 2 6 8 10 11 12 9 3 9 45 312 302 351 13 359 21 353 16 20 20 236 274 38 25 5 343 3 341 60 41 149 116 226 183 191 270 14 9 337 40 64 54
352 351 353 355 357 358 2 4 6 8 7 10 31 5 7 97 302 309 31 4 35 341 1 351 327 323 50 74 54 40 289 262 313 343 42 37 76 110 11 291 246 312 295 297 253 194 5
347 347 348 350 352 355 357 0 2 4 4 2 8 11 10 32 273 353 39 45 2 13 283 317 326 342 38 40 35 10 315 311 22 6 331 352 4 69 1 275 117 289 300 316 66 286 321
341 342 342 344 348 350 352 355 358 359 1 3 343 15 21 294 280 280 8 17 360 62 106 281 23 354 27 49 65 317 44 321 42 291 337 88 24 331 10 8 299 331 342 59 284 323 296
337 337 338 338 342 345 347 349 353 355 354 359 320 345 344 194 245 275 290 279 253 229 154 340 183 249 185 80 35 60 357 355 145 298 340 11 152 215 158 224 234 305 84 271 267 285 298
Height
838 835 832 829 826 822 819 816 813 810 807 804 802 799 796 794 793 791 790 790 790 791 790 790 790 790 790 792 781 767 767 768 772 774 776 779 781 782 792 778 774 780 772 766 768 770 771
839 836 833 829 826 822 819 815 812 808 805 802 799 796 794 792 790 789 788 788 789 789 789 789 789 790 791 796 766 765 767 768 770 772 773 774 774 775 781 776 778 766 769 770 769 770 770
840 837 833 829 826 822 818 815 811 807 803 799 796 793 791 789 788 786 786 786 787 788 788 788 789 790 791 776 766 766 767 767 768 769 770 772 771 778 775 777 763 773 785 778 774 772 775
842 838 834 830 826 822 818 814 809 805 801 797 793 790 788 786 785 784 783 784 785 786 787 788 789 790 787 764 767 766 768 768 768 768 769 767 769 773 770 765 772 783 787 801 772 772 773
843 839 835 830 826 821 817 812 808 803 798 794 791 788 785 783 782 781 781 782 784 785 786 787 789 790 783 762 761 760 765 766 766 767 767 767 768 773 772 791 806 801 815 804 788 768 777
844 840 835 830 826 821 816 812 806 802 796 792 788 785 782 779 778 779 780 781 784 785 787 788 789 795 768 758 753 757 761 764 766 766 770 772 780 790 794 802 826 806 807 791 792 777 777
845 840 835 830 825 821 816 811 805 799 794 788 784 781 778 776 775 776 780 782 788 790 786 778 771 768 757 752 753 755 758 762 765 771 792 779 801 811 790 789 782 785 799 801 778 767 786
845 841 836 830 825 820 815 809 804 797 791 785 781 777 774 773 772 774 777 778 774 775 780 760 763 763 754 757 761 755 757 770 773 791 781 796 810 784 775 774 781 785 797 790 769 772 787
846 841 836 830 825 819 814 808 802 795 788 782 777 773 771 770 771 774 773 766 768 768 778 759 756 758 754 753 761 759 755 764 775 786 787 802 781 766 774 776 781 780 791 779 781 778 776
847 841 836 830 824 818 812 806 800 793 786 780 774 771 768 769 775 773 772 762 768 772 800 771 760 749 746 745 759 744 748 760 772 786 784 790 765 772 773 777 772 794 755 758 764 787 806
847 842 836 830 824 817 811 804 797 790 783 777 771 768 767 768 769 770 766 757 765 774 814 756 756 734 736 751 748 752 745 755 776 777 779 785 773 777 777 769 755 771 750 754 763 781 791
847 842 836 830 823 816 809 801 794 786 779 773 768 765 765 768 767 762 764 766 769 803 811 765 744 749 754 750 748 746 751 749 751 770 770 771 751 758 760 747 746 743 753 769 778 792 820
848 842 836 829 823 815 807 799 791 783 774 767 763 762 762 764 761 761 762 765 804 817 756 761 758 751 757 761 757 757 764 772 782 794 796 773 763 746 744 759 747 754 789 825 824 826 827
848 843 836 829 822 814 806 798 789 780 770 763 759 759 759 756 757 759 760 781 807 775 761 738 746 753 765 755 757 757 767 777 769 771 796 798 799 754 736 750 764 761 782 820 828 836 819
849 843 837 829 822 814 805 797 788 778 769 762 759 759 758 753 757 760 769 804 795 768 748 747 750 768 770 756 755 761 768 765 757 763 791 800 785 734 732 730 742 762 779 766 795 799 819
850 844 837 830 822 814 806 796 787 777 768 762 760 759 754 752 756 760 782 796 775 746 740 743 766 760 768 758 766 768 769 743 749 743 745 761 786 740 730 726 734 748 745 780 805 812 812
852 845 838 831 823 815 806 797 787 776 767 763 761 763 747 751 757 770 794 785 758 737 732 743 755 759 762 762 754 760 757 739 728 730 732 747 771 760 741 750 759 760 767 767 784 801 816
853 846 839 832 824 816 807 798 788 777 766 763 763 773 747 751 777 782 785 764 746 741 733 737 741 750 756 756 758 759 758 747 731 729 747 738 772 783 759 736 731 738 751 774 802 796 797
854 848 841 833 826 817 808 798 790 780 769 767 770 765 750 750 787 785 769 759 743 739 739 738 750 746 746 756 766 755 756 744 735 737 749 740 772 798 782 761 745 754 750 753 772 787 791
856 849 843 835 828 819 810 800 790 780 770 769 770 776 764 758 764 766 770 765 758 741 744 745 754 750 757 767 765 770 765 749 745 744 741 743 774 781 802 781 769 768 756 750 767 793 787
858 851 844 838 831 823 814 804 793 782 774 771 774 782 780 787 773 769 761 767 767 767 754 753 761 766 770 786 782 780 770 763 751 751 755 762 782 773 768 765 763 765 762 757 762 763 772
859 853 847 840 833 826 819 810 800 789 780 779 790 793 785 785 775 768 773 775 771 764 764 772 775 769 775 786 782 788 780 776 773 759 765 768 784 777 778 764 764 768 760 758 755 758 752
861 855 849 843 836 829 823 816 808 800 792 791 792 790 792 787 781 778 781 775 773 767 763 762 765 770 777 773 766 766 765 766 766 770 774 778 783 789 795 772 772 783 778 773 770 781 776
862 856 851 845 839 832 827 821 815 809 805 803 800 797 799 797 787 786 776 772 773 774 773 763 763 768 766 758 756 756 758 761 761 758 764 774 782 793 800 785 805 778 769 766 781 784 785
862 857 852 846 841 835 830 824 819 813 809 805 802 801 805 806 792 780 779 779 776 774 775 771 768 763 759 765 782 787 784 772 758 760 761 764 782 790 796 803 783 779 777 780 779 788 784
862 857 852 848 842 837 832 827 822 816 811 806 805 804 802 807 797 786 784 784 791 790 786 776 766 761 762 781 790 794 803 786 781 771 765 767 771 786 792 794 800 794 775 764 765 790 780
862 857 852 848 843 839 834 829 824 818 814 809 806 805 802 806 792 789 791 791 785 789 795 788 782 774 768 792 798 802 800 785 803 800 796 794 794 797 796 794 798 782 774 762 792 796 778
861 856 851 847 843 839 834 830 825 821 816 811 807 806 806 807 794 787 784 788 788 793 800 790 789 785 790 803 805 807 806 800 803 795 794 802 808 811 807 807 802 781 775 787 790 781 776
859 854 850 846 842 838 834 830 826 822 817 814 810 806 804 804 793 785 781 780 782 782 789 790 793 792 792 803 805 806 807 806 809 813 793 807 802 809 806 808 792 786 784 783 781 780 776